When you browse on this site, cookies collect data to enhance your experience and personalize the content and advertising you see.
Visit our Privacy Policy to learn more. By continuing to use the site, you agree to this use of cookies and data.
  • In Österreich
  • Länderverzeichnis
  • Für 7 Tage
  • Wassertemperatur
  • Satellitenkarten
  • Wetterkarte
  • News
  • Widgets
  • user-avatar
    Anmelden

    Stündliche Wetter Summit

    Heute, 20 April, Samstag

    Zeit Temperatur Niederschläge Wind Luftdruck Luftfeuchtigkeit
    00:00 +21°C° 2.4 mm 6 m/S 748 mmHg 87%
    01:00 +20°C° 0 mm 5 m/S 747 mmHg 88%
    02:00 +20°C° 1.4 mm 5 m/S 747 mmHg 88%
    03:00 +20°C° 1.4 mm 5 m/S 747 mmHg 89%
    04:00 +20°C° 1.4 mm 5 m/S 748 mmHg 89%
    05:00 +20°C° 2.3 mm 5 m/S 748 mmHg 88%
    06:00 +20°C° 2.3 mm 5 m/S 748 mmHg 88%
    07:00 +19°C° 0 mm 5 m/S 748 mmHg 91%
    08:00 +19°C° 1.9 mm 6 m/S 748 mmHg 89%
    09:00 +20°C° 1.9 mm 6 m/S 748 mmHg 88%
    10:00 +20°C° 1.9 mm 7 m/S 748 mmHg 86%
    11:00 +20°C° 0.1 mm 7 m/S 748 mmHg 85%
    12:00 +20°C° 0.1 mm 6 m/S 748 mmHg 84%
    13:00 +21°C° 0.1 mm 6 m/S 748 mmHg 83%
    14:00 +21°C° 0 mm 6 m/S 748 mmHg 76%
    15:00 +21°C° 0 mm 6 m/S 748 mmHg 70%
    16:00 +21°C° 0 mm 6 m/S 749 mmHg 63%
    17:00 +20°C° 0 mm 5 m/S 749 mmHg 60%
    18:00 +19°C° 0 mm 5 m/S 749 mmHg 56%
    19:00 +18°C° 0 mm 4 m/S 750 mmHg 53%
    20:00 +17°C° 0 mm 4 m/S 750 mmHg 55%
    21:00 +17°C° 0 mm 4 m/S 751 mmHg 58%
    22:00 +16°C° 0 mm 3 m/S 751 mmHg 61%
    23:00 +16°C° 0 mm 3 m/S 752 mmHg 64%

    Morgen, 21 April, Sonntag

    Zeit Temperatur Niederschläge Wind Luftdruck Luftfeuchtigkeit
    00:00 +15°C° 0 mm 2 m/S 752 mmHg 66%
    01:00 +15°C° 0 mm 2 m/S 752 mmHg 69%
    02:00 +15°C° 0 mm 2 m/S 752 mmHg 71%
    03:00 +14°C° 0 mm 2 m/S 752 mmHg 72%
    04:00 +14°C° 0 mm 2 m/S 752 mmHg 74%
    05:00 +15°C° 0 mm 2 m/S 753 mmHg 71%
    06:00 +15°C° 0 mm 2 m/S 753 mmHg 69%
    07:00 +14°C° 0 mm 3 m/S 754 mmHg 67%
    08:00 +16°C° 0 mm 3 m/S 754 mmHg 60%
    09:00 +17°C° 0 mm 3 m/S 754 mmHg 53%
    10:00 +18°C° 0 mm 3 m/S 755 mmHg 46%
    11:00 +19°C° 0 mm 3 m/S 755 mmHg 43%
    12:00 +19°C° 0 mm 3 m/S 755 mmHg 41%
    13:00 +20°C° 0 mm 3 m/S 755 mmHg 38%
    14:00 +20°C° 0 mm 3 m/S 755 mmHg 40%
    15:00 +20°C° 0 mm 3 m/S 755 mmHg 42%
    16:00 +19°C° 0 mm 3 m/S 755 mmHg 43%
    17:00 +18°C° 0 mm 3 m/S 755 mmHg 46%
    18:00 +17°C° 0 mm 3 m/S 756 mmHg 49%
    19:00 +17°C° 0 mm 3 m/S 756 mmHg 52%
    20:00 +16°C° 0 mm 2 m/S 756 mmHg 56%
    21:00 +15°C° 0 mm 2 m/S 757 mmHg 60%
    22:00 +14°C° 0 mm 1 m/S 757 mmHg 63%
    23:00 +14°C° 0 mm 1 m/S 757 mmHg 66%

    übermorgen, 22 April, Montag

    Zeit Temperatur Niederschläge Wind Luftdruck Luftfeuchtigkeit
    00:00 +14°C° 0 mm 1 m/S 757 mmHg 68%
    01:00 +12°C° 0 mm 0 m/S 757 mmHg 70%
    02:00 +13°C° 0 mm 1 m/S 757 mmHg 71%
    03:00 +13°C° 0 mm 1 m/S 756 mmHg 72%
    04:00 +12°C° 0 mm 1 m/S 756 mmHg 73%
    05:00 +13°C° 0 mm 1 m/S 756 mmHg 71%
    06:00 +13°C° 0 mm 2 m/S 757 mmHg 69%
    07:00 +14°C° 0 mm 2 m/S 757 mmHg 66%
    08:00 +15°C° 0 mm 2 m/S 757 mmHg 61%
    09:00 +17°C° 0 mm 2 m/S 757 mmHg 55%
    10:00 +18°C° 0 mm 2 m/S 757 mmHg 50%
    11:00 +20°C° 0 mm 2 m/S 756 mmHg 46%
    12:00 +21°C° 0 mm 2 m/S 756 mmHg 43%
    13:00 +24°C° 0 mm 2 m/S 756 mmHg 39%
    14:00 +23°C° 0.1 mm 2 m/S 756 mmHg 42%
    15:00 +23°C° 0.1 mm 1 m/S 755 mmHg 45%
    16:00 +22°C° 0.1 mm 1 m/S 755 mmHg 48%
    17:00 +21°C° 0 mm 1 m/S 755 mmHg 52%
    18:00 +21°C° 0 mm 1 m/S 755 mmHg 56%
    19:00 +20°C° 0 mm 1 m/S 755 mmHg 60%
    20:00 +19°C° 0 mm 1 m/S 756 mmHg 64%
    21:00 +18°C° 0 mm 2 m/S 756 mmHg 68%
    22:00 +17°C° 0 mm 2 m/S 756 mmHg 72%
    23:00 +16°C° 0 mm 2 m/S 756 mmHg 74%

    23 April, Dienstag

    Zeit Temperatur Niederschläge Wind Luftdruck Luftfeuchtigkeit
    00:00 +16°C° 0 mm 2 m/S 756 mmHg 77%
    01:00 +16°C° 0 mm 2 m/S 756 mmHg 79%
    02:00 +15°C° 0 mm 2 m/S 756 mmHg 80%
    03:00 +15°C° 0 mm 1 m/S 756 mmHg 81%
    04:00 +14°C° 0 mm 1 m/S 756 mmHg 82%
    05:00 +15°C° 0 mm 1 m/S 756 mmHg 79%
    06:00 +16°C° 0 mm 1 m/S 757 mmHg 76%
    07:00 +16°C° 0 mm 1 m/S 757 mmHg 74%
    08:00 +19°C° 0 mm 1 m/S 757 mmHg 66%
    09:00 +22°C° 0 mm 1 m/S 757 mmHg 57%
    10:00 +22°C° 0 mm 0 m/S 756 mmHg 49%
    11:00 +25°C° 0 mm 1 m/S 756 mmHg 45%
    12:00 +26°C° 0 mm 2 m/S 755 mmHg 42%
    13:00 +27°C° 0 mm 2 m/S 755 mmHg 38%
    14:00 +27°C° 0 mm 3 m/S 754 mmHg 38%
    15:00 +27°C° 0 mm 3 m/S 754 mmHg 38%
    16:00 +27°C° 0 mm 3 m/S 753 mmHg 38%
    17:00 +26°C° 0 mm 3 m/S 753 mmHg 43%
    18:00 +24°C° 0 mm 3 m/S 752 mmHg 48%
    19:00 +23°C° 0 mm 2 m/S 752 mmHg 53%
    20:00 +22°C° 0 mm 3 m/S 752 mmHg 55%
    21:00 +21°C° 0 mm 3 m/S 752 mmHg 57%
    22:00 +21°C° 0 mm 4 m/S 752 mmHg 59%
    23:00 +21°C° 0 mm 4 m/S 751 mmHg 59%

    24 April, Mittwoch

    Zeit Temperatur Niederschläge Wind Luftdruck Luftfeuchtigkeit
    00:00 +21°C° 0 mm 5 m/S 750 mmHg 58%
    01:00 +20°C° 0 mm 5 m/S 750 mmHg 58%
    02:00 +20°C° 0.1 mm 5 m/S 750 mmHg 62%
    03:00 +20°C° 0.1 mm 5 m/S 749 mmHg 67%
    04:00 +19°C° 0.1 mm 5 m/S 749 mmHg 71%
    05:00 +19°C° 0 mm 5 m/S 749 mmHg 71%
    06:00 +20°C° 0 mm 5 m/S 750 mmHg 72%
    07:00 +20°C° 0 mm 5 m/S 750 mmHg 72%
    08:00 +20°C° 0 mm 5 m/S 750 mmHg 65%
    09:00 +21°C° 0 mm 5 m/S 750 mmHg 58%
    10:00 +21°C° 0 mm 5 m/S 750 mmHg 51%
    11:00 +22°C° 0 mm 5 m/S 750 mmHg 45%
    12:00 +22°C° 0 mm 4 m/S 750 mmHg 38%
    13:00 +23°C° 0 mm 4 m/S 750 mmHg 32%
    14:00 +23°C° 0 mm 4 m/S 750 mmHg 32%
    15:00 +23°C° 0 mm 4 m/S 750 mmHg 32%
    16:00 +23°C° 0 mm 4 m/S 750 mmHg 31%
    17:00 +21°C° 0 mm 4 m/S 750 mmHg 35%
    18:00 +20°C° 0 mm 4 m/S 751 mmHg 38%
    19:00 +19°C° 0 mm 4 m/S 751 mmHg 42%
    20:00 +17°C° 0 mm 4 m/S 752 mmHg 45%
    21:00 +15°C° 0 mm 4 m/S 752 mmHg 49%
    22:00 +13°C° 0 mm 4 m/S 752 mmHg 53%
    23:00 +13°C° 0 mm 4 m/S 752 mmHg 54%

    25 April, Donnerstag

    Zeit Temperatur Niederschläge Wind Luftdruck Luftfeuchtigkeit
    00:00 +12°C° 0 mm 4 m/S 753 mmHg 56%
    01:00 +11°C° 0 mm 3 m/S 753 mmHg 57%
    02:00 +11°C° 0 mm 3 m/S 753 mmHg 57%
    03:00 +10°C° 0 mm 3 m/S 753 mmHg 58%
    04:00 +10°C° 0 mm 3 m/S 753 mmHg 59%
    05:00 +10°C° 0 mm 3 m/S 754 mmHg 56%
    06:00 +10°C° 0 mm 3 m/S 754 mmHg 54%
    07:00 +11°C° 0 mm 3 m/S 754 mmHg 52%
    08:00 +13°C° 0 mm 3 m/S 754 mmHg 46%
    09:00 +15°C° 0 mm 2 m/S 754 mmHg 40%
    10:00 +17°C° 0 mm 2 m/S 754 mmHg 33%
    11:00 +19°C° 0 mm 2 m/S 754 mmHg 30%
    12:00 +20°C° 0 mm 2 m/S 753 mmHg 27%
    13:00 +23°C° 0 mm 2 m/S 753 mmHg 23%
    14:00 +23°C° 0 mm 2 m/S 752 mmHg 24%
    15:00 +23°C° 0 mm 2 m/S 752 mmHg 24%
    16:00 +24°C° 0 mm 2 m/S 752 mmHg 25%
    17:00 +21°C° 0 mm 2 m/S 752 mmHg 29%
    18:00 +20°C° 0 mm 2 m/S 752 mmHg 34%
    19:00 +19°C° 0 mm 2 m/S 752 mmHg 39%
    20:00 +18°C° 0 mm 2 m/S 752 mmHg 43%
    21:00 +17°C° 0 mm 2 m/S 753 mmHg 47%
    22:00 +16°C° 0 mm 2 m/S 753 mmHg 51%
    23:00 +15°C° 0 mm 1 m/S 753 mmHg 54%
    Mehr zeigen